Flag Weather past 2 weeks in Burlington, Ontario, Canada

Now
37 °F

Chilly.


Feels Like: 33 °F
Forecast: 31 / 36 °F
Wind: 5 mph from West

Location: Burlington Piers

Current Time: Nov 27, 2014 at 2:42:59 PM

Latest Report: Nov 27, 2014 at 2:00 PM


Visibility: N/A

Pressure: 30.06 "Hg

Humidity: 63%

Dew point: 26 °F

Location of BurlingtonLocation

Historic Weather in Burlington — Graph

°F

Burlington temperature yesterday

Maximum temperature yesterday: 36 °F (at 4:00 PM)
Minimum temperature yesterday: 33 °F (at 3:00 AM)
Average temperature yesterday: 35 °F

Past Weeks' High & Low Weather Summary

 TemperatureHumidityPressure
High64 °F (Nov 24, 12:00 PM)100% (Nov 17, 4:00 AM)30.47 "Hg (Nov 17, 4:00 AM)
Low18 °F (Nov 19, 6:00 AM)45% (Nov 15, 1:00 PM)29.14 "Hg (Nov 24, 12:00 PM)
Average33 °F73%29.99 "Hg
* Reported Nov 12 1:00 PM — Nov 27 1:00 PM, Burlington, Weather by CustomWeather, © 2014

Note: Actual official high and low records may vary slightly from our data, if they occured in-between our weather recording intervals... More about our weather records

Advertising

Burlington weather history for previous 24 hours

 ConditionsComfort  
Time TempWeatherWind HumidityBarometerVisibility
1:00 PM
Nov 27
36 °FChilly.6 mph71%30.06 "HgN/A
12:00 PM35 °FChilly.6 mph74%30.08 "HgN/A
11:00 AM34 °FChilly.8 mph75%30.09 "HgN/A
10:00 AM31 °FChilly.6 mph79%30.09 "HgN/A
9:00 AM32 °FChilly.5 mph76%30.09 "HgN/A
8:00 AM32 °FChilly.5 mph74%30.08 "HgN/A
7:00 AM31 °FChilly.6 mph76%30.08 "HgN/A
6:00 AM31 °FChilly.5 mph75%30.07 "HgN/A
5:00 AM32 °FChilly.9 mph73%30.06 "HgN/A
4:00 AM31 °FChilly.7 mph78%30.06 "HgN/A
3:00 AM33 °FChilly.5 mph78%30.07 "HgN/A
2:00 AM35 °FChilly.9 mph64%30.07 "HgN/A
1:00 AM35 °FChilly.9 mph67%30.07 "HgN/A
12:00 AM35 °FChilly.8 mph67%30.08 "HgN/A
11:00 PM
Nov 26
35 °FChilly.9 mph69%30.08 "HgN/A
10:00 PM35 °FChilly.8 mph67%30.09 "HgN/A
9:00 PM35 °FChilly.9 mph68%30.09 "HgN/A
8:00 PM36 °FChilly.14 mph70%30.09 "HgN/A
7:00 PM36 °FChilly.17 mph74%30.09 "HgN/A
6:00 PM36 °FChilly.16 mph71%30.10 "HgN/A
5:00 PM36 °FChilly.17 mph74%30.11 "HgN/A
4:00 PM36 °FChilly.15 mph76%30.11 "HgN/A
3:00 PM36 °FChilly.15 mph76%30.13 "HgN/A
2:00 PM35 °FChilly.13 mph74%30.14 "HgN/A
Weather by CustomWeather, © 2014

See weather overviewHow to use our weather pages